Simultaneous Nadir Overpasses (SNOs) Predictions

Prediction of SNOs between AURA and NPP Satellite Orbit:

Table of predicted SNOs for the next 14.0 days since TLE Epoch: 10/12/2024
Index Date (AURA) Time (AURA) Lat,Lon (AURA) SZA (AURA ) Date (NPP) Time (NPP) Lat,Lon (NPP) SZA (NPP ) Distance(km) Time Diff (sec)
1 10/14/2024 02:37:10 80.84, 53.37 97.20 10/14/2024 02:36:34 80.83, 53.21 97.25 3.12 36
2 10/14/2024 03:26:31 -80.89,-138.39 82.88 10/14/2024 03:27:16 -80.89,-138.33 82.92 1.12 45
3 10/16/2024 14:40:52 -80.82, 52.20 81.88 10/16/2024 14:39:47 -80.81, 52.07 81.82 2.31 65
4 10/16/2024 15:30:10 80.90,-139.06 97.98 10/16/2024 15:30:27 80.90,-138.93 97.95 2.36 17
5 10/19/2024 03:33:48 -80.87,-140.30 81.10 10/19/2024 03:33:41 -80.87,-140.27 81.10 0.68 7
6 10/21/2024 15:37:19 80.84,-141.54 99.82 10/21/2024 15:36:54 80.85,-141.61 99.85 1.13 25
7 10/21/2024 16:26:39 -80.92, 27.08 80.31 10/21/2024 16:27:35 -80.92, 27.21 80.37 2.43 56
8 10/24/2024 03:40:45 -80.86,-142.16 79.37 10/24/2024 03:40:05 -80.85,-142.24 79.33 1.54 40



Historial Predications of SNOs between AURA and NPP
